Home   Weather   Koblenz   Past weeks

Flag for Germany Past Weather in Koblenz, Rhineland-Palatinate, Germany — Yesterday and Last 2 Weeks

Now
45 °F

Quite cool.


Feels Like: 37 °F
Forecast: 39 / 46 °F
Wind: 17 mph from Southwest

Location: Buechel

Current Time: Feb 27, 2017 at 8:17:24 am

Latest Report: Feb 27, 2017 at 7:20 am


Visibility: N/A

Pressure: 29.71 "Hg

Humidity: 81%

Dew Point: 39 °F

Location of KoblenzLocation

Past Weather in Koblenz — Graph

°F

Koblenz Temperature Yesterday

Maximum temperature yesterday: 50 °F (at 2:20 pm)
Minimum temperature yesterday: 36 °F (at 12:20 am)
Average temperature yesterday: 41 °F

High & Low Weather Summary for the Past Weeks

 TemperatureHumidityPressure
High57 °F (Feb 15, 3:20 pm)100% (Feb 12, 6:20 am)30.51 "Hg (Feb 12, 6:20 am)
Low27 °F (Feb 25, 4:20 am)47% (Feb 15, 4:20 pm)29.36 "Hg (Feb 23, 4:20 pm)
Average39 °F87%30.11 "Hg
* Reported Feb 12 6:20 am — Feb 27 6:20 am, Koblenz, Weather by CustomWeather, © 2017

Note: Actual official high and low records may vary slightly from our data, if they occured in-between our weather recording intervals... More about our weather records

Advertising

Koblenz Weather History for the Previous 24 Hours

Scroll right to see more
 ConditionsComfort  
Time TempWeatherWind HumidityBarometerVisibility
6:20 am
Mon, Feb 27
45 °FQuite cool.16 mph81%29.74 "HgN/A
5:20 am45 °FQuite cool.14 mph81%29.74 "HgN/A
4:20 am45 °FQuite cool.14 mph87%29.77 "Hg6 mi
3:20 am45 °FQuite cool.15 mph87%29.80 "Hg6 mi
2:20 am45 °FQuite cool.10 mph87%29.80 "Hg6 mi
1:20 am45 °FQuite cool.12 mph87%29.83 "Hg5 mi
12:20 am45 °FQuite cool.13 mph87%29.83 "Hg5 mi
11:20 pm
Sun, Feb 26
45 °FQuite cool.14 mph93%29.86 "Hg4 mi
10:20 pm43 °FQuite cool.14 mph100%29.86 "Hg4 mi
9:20 pm43 °FQuite cool.12 mph100%29.86 "Hg4 mi
8:20 pm43 °FQuite cool.13 mph100%29.89 "Hg3 mi
7:20 pm43 °FQuite cool.13 mph100%29.89 "Hg1 mi
6:20 pm45 °FQuite cool.13 mph87%29.89 "Hg2 mi
5:20 pm45 °FQuite cool.16 mph81%29.89 "HgN/A
4:20 pm48 °FCool.14 mph66%29.89 "HgN/A
3:20 pm48 °FCool.13 mph62%29.89 "HgN/A
2:20 pm50 °FCool.16 mph54%29.89 "HgN/A
1:20 pm48 °FCool.16 mph58%29.92 "HgN/A
12:20 pm45 °FQuite cool.16 mph61%29.92 "HgN/A
11:20 am43 °FQuite cool.17 mph71%29.92 "HgN/A
10:20 am39 °FChilly.18 mph75%29.92 "HgN/A
9:20 am37 °FChilly.15 mph75%29.92 "HgN/A
8:20 am37 °FChilly.13 mph75%29.92 "HgN/A
Weather by CustomWeather, © 2017

See weather overviewHow to use our weather pages